Vertical_Velocity
1 1 2 1 -0 -1 -1 0 -0 -0 -2 -1 -1 -1 -1 -0 -1 -2 -3 -3 -1 -1 -2 3 3 3 1 -1 -2 -2 -1 -2 -2 -1 1 -0 -4 -2 -1 -1 -0 0 -1
1 -0 -1 0 -0 -1 -0 -2 0 -0 -3 -2 -1 -1 -1 -1 -2 -3 -3 -3 -1 -2 -2 1 2 2 -0 -1 -1 -1 1 -0 -2 1 1 -1 -3 -2 1 -1 1 0 -0
3 0 -0 -1 1 -1 -1 -2 -2 -1 -1 -0 2 -1 -1 -0 -1 -2 -3 -1 -0 -1 -0 1 2 1 0 1 -1 -1 -1 -1 -1 -1 2 -0 -3 -1 1 -1 -0 -1 -1
2 1 -0 -0 0 1 1 1 -1 -3 -3 -1 -0 1 0 -1 -0 -0 -2 -2 -3 -1 0 0 1 1 0 -1 -2 -2 -0 -0 2 -0 1 -2 -2 -1 -1 -1 -2 -0 -0
-2 -1 1 0 1 -0 1 1 1 -0 0 -0 0 0 -0 -0 -1 0 -0 -1 -0 0 2 3 1 0 1 -1 -2 -2 -2 -2 4 1 -1 -4 -5 1 -11 1 -6 1 3
2 2 -0 1 1 1 1 2 1 1 1 -0 -0 0 0 -1 -1 -2 -0 -1 -1 1 1 2 3 0 1 -1 -2 -3 -1 -2 8 1 0 -2 -4 -2 3 -2 -6 -0 1
1 -0 1 0 1 0 0 -0 1 2 1 1 0 1 1 1 -0 -1 -1 -0 -1 -1 3 3 3 -0 0 -0 -0 -3 -3 -3 7 5 -1 -3 -5 -3 -1 0 -7 -4 0
1 -2 -0 -1 -0 1 0 0 1 1 1 1 0 0 0 -0 -0 -2 -2 -1 -0 -1 1 2 2 1 2 0 -1 -2 -3 -3 7 4 -0 -1 -5 -6 -0 -0 -2 -3 1
-3 -2 0 1 1 -2 -1 -0 -0 1 1 0 -0 -0 -0 -1 0 -1 -1 -2 -1 0 0 1 1 0 0 1 0 -1 -3 -1 4 4 -0 -2 -1 -2 0 -3 -2 -3 -2
10 -0 -1 2 -0 1 3 2 0 -1 -1 0 1 0 1 0 -0 -0 0 -1 -0 0 1 2 2 1 0 0 -0 -0 -4 -5 2 1 2 -0 -1 -1 -4 0 -1 -8 -1
2 7 3 -3 0 0 1 3 2 2 -0 -1 -0 1 0 2 1 1 0 -0 0 -1 1 3 2 2 2 -0 -1 2 -3 -3 -5 2 0 1 4 0 1 1 -3 2 3
-4 2 4 7 -2 0 -0 2 3 2 2 0 -1 1 2 1 0 -0 1 1 -0 -2 0 3 4 2 2 0 1 1 -0 -3 -3 1 2 -5 -1 2 3 1 -1 -2 -1
-9 2 3 5 6 0 -1 -1 3 2 1 1 2 -1 -1 -2 -1 1 0 -0 1 -3 -2 -0 2 3 2 3 1 1 1 0 -3 2 3 1 -3 -2 -3 3 3 -1 3
-4 -7 7 5 10 7 8 -2 -1 1 -0 1 2 -0 -1 -0 -0 1 -0 -1 -0 -2 -3 -1 1 2 3 3 1 0 -0 0 -2 -2 0 3 -1 0 -2 -1 -1 1 0
5 -4 6 -2 0 11 6 0 -2 0 2 -1 -1 -0 2 5 2 -1 2 -2 -2 -0 -1 -1 -1 2 3 5 4 -1 -1 -2 2 -1 2 3 1 3 1 1 -1 -1 -1
-2 2 -2 6 11 2 -0 7 0 -3 2 -0 -0 7 0 2 3 -1 -1 -1 -1 -4 -3 -1 1 1 3 4 4 3 1 -2 -1 1 0 1 1 -3 1 5 2 0 1
-4 -3 1 1 13 6 -8 0 2 4 6 1 2 -6 5 -5 -1 -6 -7 1 4 -2 -0 -1 -1 -1 2 2 5 4 2 1 -4 -1 0 0 -0 -1 -2 0 3 2 0
1 1 -0 6 2 -2 -1 1 -2 -1 3 1 4 5 3 1 -3 6 13 8 17 -6 8 -1 -1 0 2 3 5 5 3 0 0 -1 -0 0 3 -2 -0 -6 -0 0 2
-1 -4 7 4 -7 -4 0 5 2 -2 1 1 1 3 6 8 3 1 -3 8 0 8 8 0 -3 -1 -3 0 -0 0 -5 -1 2 2 4 3 -6 1 -1 -1 0 -1 0
4 9 1 6 -6 -4 -0 -1 6 1 -2 0 -1 -3 -2 1 -0 -2 -5 -3 10 16 11 32 2 -6 1 1 -1 -2 -1 0 2 3 2 5 5 -1 -0 -2 2 1 -2
6 11 5 6 3 -3 -4 -3 0 4 4 1 -0 -1 1 -2 -3 -2 -3 -1 -1 -5 -3 -2 12 8 7 6 -3 2 -2 -5 -2 -4 -7 -7 6 4 -1 1 -0 -2 -0
5 6 -1 2 1 2 2 -1 2 -0 2 5 4 1 -1 -1 1 -0 -1 -1 -2 -4 3 4 13 6 6 7 40 21 -7 4 11 2 -6 3 -8 3 -1 -1 -0 2 -2
0 -0 3 0 6 -0 2 0 0 1 3 0 4 3 1 1 -3 -2 -0 -1 -1 -4 -1 -3 4 10 -1 4 7 9 107 -5 -10 -2 1 5 -7 -2 -1 -2 1 -1 -0
2 2 -1 6 11 1 1 0 0 -1 2 0 -2 3 2 -2 1 -4 -0 1 -1 3 -1 -1 2 2 -1 -0 6 8 83 45 -2 5 -4 -2 0 1 -3 -4 -2 -2 0
5 -0 5 -1 1 5 0 3 3 2 2 1 0 2 -0 -2 -3 -2 -2 -2 1 0 4 5 -4 6 2 0 -1 5 -7 20 -11 5 5 -1 -6 4 -5 -4 -1 2 -4
5 0 2 5 0 1 3 -1 2 -1 2 4 -1 3 0 2 -1 -2 -5 -2 -1 -6 3 7 1 -4 7 7 3 -6 1 1 4 -8 -14 13 -4 1 -6 -7 1 -2 -3
Height
5873 5871 5871 5871 5871 5870 5870 5871 5871 5871 5871 5872 5872 5871 5871 5871 5871 5870 5870 5869 5868 5866 5865 5864 5863 5861 5860 5858 5857 5856 5854 5852 5851 5849 5846 5846 5845 5843 5841 5840 5839 5838 5838
5870 5868 5867 5867 5867 5867 5867 5867 5868 5868 5868 5868 5868 5868 5868 5868 5867 5866 5866 5866 5864 5863 5862 5861 5860 5859 5858 5857 5856 5854 5853 5851 5849 5847 5846 5844 5843 5841 5840 5838 5836 5835 5835
5866 5864 5864 5863 5863 5864 5864 5863 5863 5864 5863 5864 5865 5865 5864 5864 5863 5862 5862 5860 5860 5859 5858 5858 5857 5857 5855 5854 5853 5852 5850 5849 5848 5846 5844 5843 5842 5839 5837 5835 5834 5834 5833
5860 5860 5859 5859 5859 5859 5859 5859 5858 5858 5858 5859 5860 5861 5861 5859 5858 5857 5857 5856 5856 5856 5855 5854 5854 5853 5851 5850 5850 5849 5848 5847 5845 5843 5841 5842 5841 5838 5836 5835 5835 5834 5833
5856 5855 5854 5855 5855 5854 5855 5855 5854 5853 5853 5853 5854 5855 5856 5855 5854 5854 5853 5853 5852 5852 5852 5851 5850 5849 5848 5847 5846 5846 5845 5844 5844 5841 5839 5839 5839 5837 5835 5830 5835 5834 5833
5852 5852 5851 5851 5850 5850 5850 5850 5850 5850 5849 5849 5849 5849 5850 5850 5850 5850 5850 5849 5849 5849 5849 5848 5847 5847 5845 5844 5843 5843 5843 5842 5842 5838 5836 5836 5837 5836 5834 5832 5831 5831 5831
5847 5847 5847 5846 5846 5846 5845 5845 5846 5846 5846 5845 5844 5844 5845 5845 5846 5845 5845 5845 5846 5846 5845 5844 5844 5843 5842 5841 5839 5839 5839 5839 5838 5836 5834 5832 5833 5834 5830 5829 5828 5827 5829
5840 5841 5842 5841 5841 5841 5840 5840 5840 5840 5841 5841 5840 5840 5840 5841 5841 5841 5840 5841 5842 5843 5842 5841 5839 5839 5838 5838 5836 5835 5835 5835 5835 5832 5832 5830 5830 5831 5828 5828 5826 5826 5826
5831 5833 5836 5837 5835 5836 5836 5835 5835 5835 5835 5836 5836 5836 5836 5836 5836 5836 5836 5836 5837 5838 5839 5837 5836 5834 5834 5833 5833 5832 5831 5830 5831 5830 5829 5827 5826 5828 5826 5826 5826 5824 5825
5829 5826 5828 5828 5830 5830 5830 5830 5830 5829 5829 5830 5830 5831 5831 5832 5832 5832 5831 5832 5832 5833 5834 5833 5831 5831 5830 5829 5828 5827 5827 5826 5827 5827 5826 5825 5824 5824 5823 5823 5823 5821 5822
5821 5820 5820 5821 5822 5823 5824 5824 5824 5824 5824 5824 5824 5824 5825 5825 5825 5826 5826 5827 5827 5828 5828 5828 5826 5826 5825 5824 5823 5823 5822 5822 5821 5822 5823 5822 5822 5822 5821 5820 5819 5819 5817
5810 5812 5813 5814 5815 5816 5815 5817 5818 5818 5819 5819 5818 5817 5818 5818 5819 5819 5820 5820 5821 5821 5822 5822 5821 5820 5820 5819 5818 5818 5817 5816 5816 5816 5817 5818 5817 5817 5818 5816 5815 5814 5812
5799 5802 5806 5807 5807 5808 5808 5809 5811 5811 5812 5812 5811 5811 5811 5811 5812 5813 5813 5814 5814 5814 5815 5816 5816 5815 5814 5814 5813 5813 5812 5812 5811 5812 5811 5811 5811 5811 5812 5812 5809 5807 5806
5791 5790 5795 5798 5799 5798 5800 5798 5801 5802 5802 5803 5804 5804 5803 5804 5804 5805 5806 5806 5807 5808 5808 5809 5809 5809 5808 5807 5808 5808 5807 5807 5806 5806 5805 5805 5806 5805 5806 5806 5804 5803 5802
5784 5782 5784 5789 5791 5791 5791 5791 5790 5792 5794 5794 5794 5795 5796 5795 5796 5796 5798 5798 5799 5799 5800 5800 5801 5801 5802 5800 5800 5801 5801 5801 5800 5800 5801 5800 5800 5800 5801 5801 5800 5798 5797
5775 5774 5773 5778 5781 5783 5782 5781 5782 5782 5783 5784 5786 5786 5786 5788 5788 5789 5788 5790 5790 5792 5792 5792 5792 5792 5793 5793 5792 5792 5794 5794 5794 5794 5794 5794 5796 5796 5795 5796 5796 5795 5792
5763 5764 5764 5765 5770 5771 5770 5771 5771 5771 5773 5774 5776 5775 5776 5777 5777 5778 5779 5780 5780 5782 5781 5782 5783 5784 5784 5785 5784 5783 5784 5785 5786 5787 5787 5788 5789 5788 5789 5789 5790 5789 5787
5750 5752 5753 5754 5755 5756 5756 5759 5761 5761 5761 5762 5764 5766 5766 5767 5768 5767 5765 5764 5762 5769 5772 5772 5774 5774 5774 5775 5774 5774 5773 5775 5777 5779 5780 5780 5781 5782 5781 5782 5783 5782 5782
5735 5737 5738 5742 5742 5741 5741 5746 5749 5751 5751 5751 5752 5754 5755 5756 5757 5760 5762 5759 5757 5750 5760 5765 5765 5765 5764 5764 5764 5764 5764 5765 5766 5769 5772 5773 5774 5774 5774 5775 5776 5777 5776
5720 5723 5722 5725 5731 5731 5731 5731 5735 5739 5740 5739 5740 5742 5744 5744 5745 5748 5751 5754 5752 5753 5754 5752 5753 5755 5755 5754 5753 5752 5753 5754 5756 5759 5762 5762 5766 5767 5765 5767 5769 5772 5770
5703 5704 5707 5711 5715 5719 5722 5722 5721 5724 5727 5728 5728 5730 5732 5734 5735 5737 5739 5742 5743 5742 5744 5744 5745 5745 5745 5744 5741 5739 5742 5744 5745 5748 5751 5754 5754 5758 5757 5759 5761 5764 5765
5687 5691 5694 5699 5702 5704 5707 5710 5712 5712 5714 5717 5718 5718 5720 5723 5725 5727 5728 5730 5731 5732 5732 5732 5734 5734 5735 5734 5731 5725 5724 5730 5735 5737 5740 5744 5745 5747 5749 5749 5753 5756 5758
5674 5676 5679 5685 5688 5691 5693 5696 5700 5702 5702 5704 5706 5707 5709 5711 5714 5715 5717 5719 5721 5720 5721 5721 5721 5722 5722 5722 5721 5722 5684 5704 5720 5726 5730 5733 5736 5738 5740 5740 5743 5746 5749
5661 5663 5667 5671 5670 5675 5679 5684 5688 5691 5692 5694 5694 5696 5698 5699 5702 5704 5706 5707 5708 5709 5710 5710 5710 5708 5708 5710 5709 5712 5695 5679 5703 5712 5720 5723 5725 5728 5731 5731 5734 5737 5741
5651 5652 5655 5657 5660 5662 5666 5670 5674 5678 5681 5682 5684 5686 5687 5689 5690 5691 5693 5694 5694 5696 5697 5698 5698 5697 5694 5694 5698 5694 5697 5693 5701 5704 5705 5713 5715 5718 5720 5721 5723 5726 5730
5641 5644 5646 5650 5651 5653 5655 5657 5663 5664 5667 5670 5673 5675 5676 5678 5678 5679 5680 5680 5681 5681 5682 5684 5684 5681 5681 5678 5680 5681 5683 5683 5688 5694 5695 5699 5704 5706 5708 5711 5712 5716 5718